| time (UTC) | temp C | wind direction | speed KPH | gust KPH | rain 1hr cm | rain 24hr cm | rain mn cm | humidity % | barometer mb |
| 20260506044539 | 20 | 311 | 4.8 | 19.3 | 0.00 | 0.00 | 0.00 | 53 | 1013.8 |
| 20260506043043 | 20 | 340 | 3.2 | 8.0 | 0.00 | 0.00 | 0.00 | 56 | 1013.7 |
| 20260506041541 | 20 | 330 | 3.2 | 12.9 | 0.00 | 0.00 | 0.00 | 57 | 1013.5 |
| 20260506040040 | 21 | 322 | 4.8 | 16.1 | 0.00 | 0.00 | 0.00 | 55 | 1013.3 |
| 20260506034538 | 21 | 325 | 3.2 | 12.9 | 0.00 | 0.00 | 0.00 | 55 | 1013.0 |
| 20260506033038 | 21 | 322 | 4.8 | 9.7 | 0.00 | 0.00 | 0.00 | 54 | 1012.6 |
| 20260506031539 | 21 | 35 | 0.0 | 4.8 | 0.00 | 0.00 | 0.00 | 44 | 1012.4 |
| 20260506030044 | 22 | 36 | 1.6 | 6.4 | 0.00 | 0.00 | 0.00 | 42 | 1012.3 |
| 20260506024548 | 23 | 36 | 3.2 | 8.0 | 0.00 | 0.00 | 0.00 | 40 | 1012.1 |
| 20260506023039 | 24 | 35 | 3.2 | 9.7 | 0.00 | 0.00 | 0.00 | 38 | 1012.0 |
| 20260506021537 | 25 | 40 | 3.2 | 9.7 | 0.00 | 0.00 | 0.00 | 37 | 1011.9 |
| 20260506020040 | 25 | 49 | 9.7 | 19.3 | 0.00 | 0.00 | 0.00 | 38 | 1011.9 |
| 20260506014537 | 26 | 38 | 9.7 | 19.3 | 0.00 | 0.00 | 0.00 | 35 | 1011.8 |
| 20260506013038 | 27 | 36 | 1.6 | 8.0 | 0.00 | 0.00 | 0.00 | 34 | 1011.7 |
| 20260506011601 | 27 | 35 | 4.8 | 11.3 | 0.00 | 0.00 | 0.00 | 34 | 1011.7 |
| 20260506010040 | 27 | 352 | 3.2 | 20.9 | 0.00 | 0.00 | 0.00 | 33 | 1011.7 |
| 20260506004554 | 27 | 28 | 1.6 | 12.9 | 0.00 | 0.00 | 0.00 | 33 | 1011.6 |
| 20260506003037 | 27 | 44 | 4.8 | 17.7 | 0.00 | 0.00 | 0.00 | 35 | 1011.6 |
| 20260506001537 | 27 | 31 | 1.6 | 22.5 | 0.00 | 0.00 | 0.00 | 34 | 1011.6 |
| 20260506000110 | 27 | 57 | 8.0 | 20.9 | 0.00 | 0.00 | 0.00 | 33 | 1011.6 |
| 20260505234545 | 27 | 59 | 12.9 | 20.9 | 0.00 | 0.00 | 0.00 | 31 | 1011.7 |
| 20260505233038 | 27 | 63 | 6.4 | 20.9 | 0.00 | 0.00 | 0.00 | 31 | 1011.8 |
| 20260505231539 | 28 | 12 | 1.6 | 11.3 | 0.00 | 0.00 | 0.00 | 32 | 1011.8 |
| 20260505230057 | 27 | 40 | 11.3 | 22.5 | 0.00 | 0.00 | 0.00 | 31 | 1011.9 |
| 20260505224542 | 27 | 34 | 3.2 | 17.7 | 0.00 | 0.00 | 0.00 | 34 | 1011.9 |
| 20260505223043 | 27 | 24 | 8.0 | 19.3 | 0.00 | 0.00 | 0.00 | 34 | 1012.0 |
| 20260505221541 | 27 | 17 | 1.6 | 17.7 | 0.00 | 0.00 | 0.00 | 34 | 1012.1 |
| 20260505220040 | 27 | 35 | 8.0 | 17.7 | 0.00 | 0.00 | 0.00 | 34 | 1012.2 |
| 20260505214537 | 26 | 0 | 4.8 | 19.3 | 0.00 | 0.00 | 0.00 | 37 | 1012.2 |
| 20260505213043 | 26 | 32 | 9.7 | 20.9 | 0.00 | 0.00 | 0.00 | 36 | 1012.4 |
| 20260505211541 | 26 | 0 | 8.0 | 22.5 | 0.00 | 0.00 | 0.00 | 40 | 1012.4 |
| 20260505210039 | 25 | 51 | 8.0 | 24.1 | 0.00 | 0.00 | 0.00 | 40 | 1012.5 |
| 20260505204545 | 26 | 26 | 3.2 | 17.7 | 0.00 | 0.00 | 0.00 | 41 | 1012.5 |
| 20260505203051 | 26 | 28 | 8.0 | 17.7 | 0.00 | 0.00 | 0.00 | 41 | 1012.8 |
| 20260505201540 | 25 | 5 | 3.2 | 14.5 | 0.00 | 0.00 | 0.00 | 43 | 1012.8 |
| 20260505200046 | 24 | 5 | 4.8 | 17.7 | 0.00 | 0.00 | 0.00 | 45 | 1013.0 |
| 20260505194551 | 23 | 360 | 8.0 | 14.5 | 0.00 | 0.00 | 0.00 | 45 | 1013.1 |
| 20260505193039 | 23 | 360 | 3.2 | 17.7 | 0.00 | 0.00 | 0.00 | 46 | 1013.1 |
| 20260505191547 | 23 | 352 | 4.8 | 16.1 | 0.00 | 0.00 | 0.00 | 47 | 1013.3 |
| 20260505190040 | 22 | 351 | 4.8 | 12.9 | 0.00 | 0.00 | 0.00 | 48 | 1013.3 |
| 20260505184538 | 22 | 350 | 1.6 | 9.7 | 0.00 | 0.00 | 0.00 | 50 | 1013.4 |
| 20260505183043 | 21 | 349 | 1.6 | 14.5 | 0.00 | 0.00 | 0.00 | 51 | 1013.4 |
| 20260505181540 | 21 | 0 | 1.6 | 6.4 | 0.00 | 0.00 | 0.00 | 50 | 1013.4 |
| 20260505180047 | 21 | 340 | 3.2 | 9.7 | 0.00 | 0.00 | 0.00 | 52 | 1013.3 |
| 20260505174540 | 20 | 0 | 1.6 | 6.4 | 0.00 | 0.00 | 0.00 | 57 | 1013.2 |
| 20260505173037 | 18 | 272 | 4.8 | 6.4 | 0.00 | 0.00 | 0.00 | 56 | 1013.1 |
| 20260505171554 | 18 | 292 | 1.6 | 11.3 | 0.00 | 0.00 | 0.00 | 59 | 1013.1 |
| 20260505170043 | 17 | 290 | 6.4 | 14.5 | 0.00 | 0.00 | 0.00 | 60 | 1013.2 |
| 20260505164538 | 17 | 251 | 4.8 | 11.3 | 0.00 | 0.00 | 0.00 | 61 | 1013.1 |
| 20260505163038 | 16 | 238 | 4.8 | 14.5 | 0.00 | 0.00 | 0.00 | 64 | 1013.2 |
| 20260505161551 | 16 | 259 | 4.8 | 12.9 | 0.00 | 0.00 | 0.00 | 65 | 1013.2 |
| 20260505153041 | 15 | 261 | 3.2 | 11.3 | 0.00 | 0.00 | 0.00 | 69 | 1013.2 |
| 20260505151538 | 13 | 260 | 4.8 | 11.3 | 0.00 | 0.00 | 0.00 | 71 | 1013.1 |
| 20260505124552 | 10 | 225 | 1.6 | 4.8 | 0.00 | 0.00 | 0.00 | 83 | 1012.0 |
| 20260505123053 | 10 | 225 | 0.0 | 4.8 | 0.00 | 0.00 | 0.00 | 82 | 1011.8 |
| 20260505121611 | 10 | 213 | 1.6 | 4.8 | 0.00 | 0.00 | 0.00 | 79 | 1011.8 |
| 20260505120047 | 10 | 204 | 0.0 | 6.4 | 0.00 | 0.00 | 0.00 | 77 | 1011.7 |
| 20260505114544 | 10 | 0 | 1.6 | 4.8 | 0.00 | 0.00 | 0.00 | 74 | 1011.7 |
| 20260505113054 | 11 | 204 | 1.6 | 3.2 | 0.00 | 0.00 | 0.00 | 72 | 1011.7 |
| 20260505111542 | 11 | 0 | 1.6 | 6.4 | 0.00 | 0.00 | 0.00 | 68 | 1011.6 |
| 20260505101542 | 13 | 298 | 3.2 | 6.4 | 0.00 | 0.00 | 0.00 | 73 | 1011.4 |
| 20260505100051 | 13 | 312 | 1.6 | 4.8 | 0.00 | 0.00 | 0.00 | 76 | 1011.3 |
| 20260505094545 | 14 | 298 | 3.2 | 6.4 | 0.00 | 0.00 | 0.00 | 74 | 1011.2 |
| 20260505093044 | 14 | 332 | 1.6 | 8.0 | 0.00 | 0.00 | 0.00 | 74 | 1011.2 |
| 20260505091549 | 15 | 328 | 3.2 | 12.9 | 0.00 | 0.00 | 0.00 | 73 | 1011.2 |
| 20260505090054 | 15 | 328 | 3.2 | 8.0 | 0.00 | 0.00 | 0.00 | 73 | 1011.2 |
| 20260505084540 | 15 | 348 | 3.2 | 12.9 | 0.00 | 0.00 | 0.00 | 72 | 1011.2 |
| 20260505083046 | 15 | 325 | 3.2 | 12.9 | 0.00 | 0.00 | 0.00 | 72 | 1011.2 |
| 20260505081546 | 15 | 352 | 4.8 | 12.9 | 0.00 | 0.00 | 0.00 | 72 | 1011.1 |
| 20260505080050 | 15 | 333 | 4.8 | 16.1 | 0.00 | 0.00 | 0.00 | 70 | 1011.2 |
| 20260505074542 | 15 | 309 | 6.4 | 19.3 | 0.00 | 0.00 | 0.00 | 70 | 1011.0 |
| 20260505073052 | 15 | 317 | 3.2 | 20.9 | 0.00 | 0.00 | 0.00 | 69 | 1011.1 |
| 20260505071542 | 15 | 311 | 6.4 | 20.9 | 0.00 | 0.00 | 0.00 | 68 | 1011.0 |
| 20260505070044 | 15 | 324 | 6.4 | 19.3 | 0.00 | 0.00 | 0.00 | 66 | 1010.9 |
| 20260505064540 | 16 | 338 | 6.4 | 20.9 | 0.00 | 0.00 | 0.00 | 64 | 1010.9 |
| 20260505063050 | 16 | 336 | 6.4 | 17.7 | 0.00 | 0.00 | 0.00 | 61 | 1010.8 |
| 20260505061539 | 16 | 337 | 6.4 | 19.3 | 0.00 | 0.00 | 0.00 | 59 | 1010.7 |